Greenville, ME

12:01 PM EST on November 20, 2019 (GMT -0500)
Greenville

Weather History for KGNR - September, 2019

Change the Weather History Date:

Monday, September 9, 2019

  Actual Average (KMLT) Record (KMLT)
Temperature  
Mean Temperature 53 °F -  
Max Temperature 62 °F 69 °F 95 °F (2002)
Min Temperature 46 °F 48 °F 30 °F (1937)
Degree Days  
Heating Degree Days 12    
Growing Degree Days 3 (Base 50)    
Moisture  
Dew Point 45 °F    
Average Humidity 77    
Maximum Humidity 93    
Minimum Humidity 55    
Precipitation  
Precipitation 0.00 in - - ()
Sea Level Pressure  
Sea Level Pressure 30.26 in    
Wind  
Wind Speed 5 mph ()    
Max Wind Speed 12 mph    
Max Gust Speed -    
Averages and records for this station are not official NWS values.
T = Trace of Precipitation, MM = Missing Value Source: Averaged Metar Reports

Daily Weather History Graph

Daily Weather History Graph

Search for Another Location

Airport or City:

Astronomy

Sep. 09, 2019 Rise Set
Actual Time 6:09 AM EDT 7:01 PM EDT
Civil Twilight 5:39 AM EDT 7:31 PM EDT
Nautical Twilight 5:03 AM EDT 8:07 PM EDT
Astronomical Twilight 4:25 AM EDT 8:44 PM EDT
Moon 5:07 PM EDT (9/9) 1:23 AM EDT (9/9)
Length of Visible Light 13h 52m
Length of Day
12h 52m
Waxing Gibbous, 83% of the Moon is Illuminated
Sep 9
Waxing Gibbous
Sep 14
Full
Sep 21
Last Quarter
Sep 28
New
Oct 5
First Quarter

Hourly Weather History & Observations

Time (EDT) Temp. Dew Point Humidity Pressure Visibility Wind Dir Wind Speed Gust Speed Precip Events Conditions
12:56 AM 48.0 °F 44.1 °F 86% 30.16 in - SE 4.6 mph - N/A   Unknown
1:56 AM 46.9 °F 43.0 °F 86% 30.17 in - Calm Calm - N/A   Unknown
2:56 AM 46.9 °F 44.1 °F 90% 30.17 in - NW 6.9 mph - N/A   Unknown
3:56 AM 46.9 °F 45.0 °F 93% 30.17 in - North 4.6 mph - N/A   Unknown
4:56 AM 46.9 °F 44.1 °F 90% 30.19 in - North 3.5 mph - N/A   Unknown
5:56 AM 46.9 °F 45.0 °F 93% 30.21 in - NNW 5.8 mph - N/A   Unknown
6:56 AM 48.0 °F 45.0 °F 89% 30.23 in - NNW 8.1 mph - N/A   Unknown
7:56 AM 48.9 °F 46.0 °F 90% 30.26 in - NW 8.1 mph - N/A   Unknown
8:56 AM 52.0 °F 46.9 °F 83% 30.28 in - NW 8.1 mph - N/A   Unknown
9:56 AM 55.0 °F 46.9 °F 74% 30.29 in - NW 10.4 mph - N/A   Unknown
10:56 AM 57.9 °F 46.9 °F 67% 30.29 in - NNW 8.1 mph - N/A   Unknown
11:56 AM 60.1 °F 46.0 °F 60% 30.27 in - NNW 11.5 mph - N/A   Unknown
12:56 PM 59.0 °F 45.0 °F 60% 30.27 in - NW 9.2 mph - N/A   Unknown
1:56 PM 59.0 °F 44.1 °F 58% 30.26 in - NW 9.2 mph - N/A   Unknown
2:56 PM 60.1 °F 44.1 °F 55% 30.26 in - NW 4.6 mph - N/A   Unknown
3:56 PM 60.1 °F 45.0 °F 57% 30.26 in - NW 5.8 mph - N/A   Unknown
4:56 PM 59.0 °F 45.0 °F 60% 30.27 in - Calm Calm - N/A   Unknown
5:56 PM 57.0 °F 48.0 °F 72% 30.28 in - Calm Calm - N/A   Unknown
7:56 PM 54.0 °F 44.1 °F 69% 30.30 in - WNW 3.5 mph - N/A   Unknown
9:56 PM 50.0 °F 45.0 °F 83% 30.33 in - NNW 6.9 mph - N/A   Unknown
10:56 PM 48.9 °F 45.0 °F 86% 30.34 in - NW 6.9 mph - N/A   Unknown
11:56 PM 48.0 °F 44.1 °F 86% 30.35 in - NNW 5.8 mph - N/A   Unknown